Home   Weather   Burgdorf   Past weeks

Flag for Switzerland Past Weather in Burgdorf, Bern, Switzerland — Yesterday and Last 2 Weeks

57 °F

Passing clouds.

Feels Like: 56 °F
Forecast: 37 / 55 °F
Wind: 6 mph from Northeast

Location: Bern / Belp

Current Time: Oct 27, 2016 at 5:09:28 PM

Latest Report: Oct 27, 2016 at 4:20 PM

Visibility: N/A

Pressure: 30.48 "Hg (28.59 "Hg at 539m altitude)

Humidity: 67%

Dew Point: 46 °F

Location of BurgdorfLocation

Past Weather in Burgdorf — Graph


Burgdorf Temperature Yesterday

Maximum temperature yesterday: 57 °F (at 3:20 PM)
Minimum temperature yesterday: 50 °F (at 11:20 PM)
Average temperature yesterday: 54 °F

High & Low Weather Summary for the Past Weeks

High64 °F (Oct 24, 3:20 PM)100% (Oct 12, 10:20 PM)30.51 "Hg (Oct 12, 10:20 PM)
Low32 °F (Oct 13, 2:20 AM)51% (Oct 20, 4:20 PM)29.62 "Hg (Oct 14, 5:20 PM)
Average47 °F91%30.06 "Hg
* Reported Oct 12 3:20 PM — Oct 27 3:50 PM, Burgdorf, Weather by CustomWeather, © 2016

Note: Actual official high and low records may vary slightly from our data, if they occured in-between our weather recording intervals... More about our weather records


Burgdorf Weather History for the Previous 24 Hours

Scroll right to see more
Time TempWeatherWind HumidityBarometerVisibility
3:50 PM
Thu, Oct 27
57 °FScattered clouds.7 mph67%30.45 "HgN/A
3:20 PM57 °FPassing clouds.5 mph67%30.45 "HgN/A
2:50 PM57 °FScattered clouds.6 mph67%30.45 "HgN/A
2:20 PM55 °FPassing clouds.3 mph72%30.48 "HgN/A
1:50 PM55 °FPassing clouds.7 mph72%30.48 "HgN/A
1:20 PM55 °FScattered clouds.7 mph67%30.48 "HgN/A
12:50 PM55 °FPassing clouds.8 mph72%30.51 "HgN/A
12:20 PM54 °FScattered clouds.5 mph77%30.51 "HgN/A
11:50 AM54 °FScattered clouds.5 mph77%30.51 "HgN/A
11:20 AM54 °FScattered clouds.3 mph77%30.51 "HgN/A
10:50 AM52 °FPassing clouds.No wind82%30.51 "Hg6 mi
10:20 AM48 °FPassing clouds.2 mph94%30.48 "Hg6 mi
9:50 AM46 °FClear.2 mph100%30.48 "Hg5 mi
9:20 AM45 °FQuite cool.1 mph93%30.48 "Hg5 mi
8:50 AM43 °FScattered clouds.2 mph100%30.48 "Hg5 mi
8:20 AM43 °FFog.1 mph100%30.45 "Hg2 mi
7:50 AM41 °FPassing clouds.1 mph100%30.45 "Hg6 mi
7:20 AM45 °FFog.3 mph93%30.42 "HgN/A
6:50 AM45 °FPassing clouds.2 mph93%30.42 "Hg6 mi
6:20 AM46 °FPassing clouds.2 mph93%30.42 "HgN/A
5:50 AM46 °FPassing clouds.No wind93%30.42 "Hg5 mi
5:20 AM46 °FMostly cloudy.2 mph100%30.42 "Hg4 mi
4:50 AM48 °FPassing clouds.2 mph94%30.39 "HgN/A
4:20 AM50 °FPassing clouds.1 mph94%30.39 "Hg3 mi
3:50 AM50 °FPassing clouds.1 mph94%30.42 "Hg3 mi
3:20 AM50 °FOvercast.1 mph94%30.42 "Hg3 mi
2:50 AM48 °FOvercast.1 mph100%30.42 "Hg3 mi
2:20 AM48 °FPassing clouds.5 mph94%30.42 "Hg3 mi
1:50 AM50 °FPartly cloudy.5 mph94%30.42 "Hg3 mi
1:20 AM48 °FPassing clouds.5 mph100%30.39 "Hg3 mi
12:50 AM50 °FFog.5 mph94%30.39 "Hg3 mi
12:20 AM52 °FPassing clouds.5 mph94%30.39 "Hg5 mi
11:50 PM
Wed, Oct 26
50 °FPassing clouds.3 mph100%30.39 "Hg6 mi
11:20 PM50 °FPassing clouds.1 mph100%30.39 "Hg4 mi
10:50 PM52 °FPartly cloudy.3 mph94%30.39 "HgN/A
10:20 PM52 °FPassing clouds.2 mph94%30.39 "HgN/A
9:50 PM54 °FPassing clouds.2 mph88%30.36 "HgN/A
9:20 PM52 °FPassing clouds.3 mph94%30.36 "HgN/A
8:50 PM52 °FPartly cloudy.3 mph94%30.36 "HgN/A
8:20 PM54 °FPartly cloudy.5 mph88%30.36 "HgN/A
7:50 PM54 °FPassing clouds.3 mph88%30.36 "HgN/A
7:20 PM54 °FPartly cloudy.No wind88%30.33 "HgN/A
6:50 PM55 °FPartly cloudy.3 mph82%30.33 "HgN/A
6:20 PM55 °FBroken clouds.3 mph94%30.30 "HgN/A
5:50 PM55 °FBroken clouds.5 mph94%30.30 "HgN/A
5:20 PM57 °FBroken clouds.6 mph88%30.30 "HgN/A
Weather by CustomWeather, © 2016

See weather overviewHow to use our weather pages